Istanbul, Turkey

6:21 PM +03 on November 19, 2017 (GMT +0300)
Ataturk

Weather History for LTBA - December, 2012

Change the Weather History Date:

Thursday, December 6, 2012

  Actual Average Record
Temperature  
Mean Temperature 48 °F -  
Max Temperature 51 °F 48 °F 64 °F (2008)
Min Temperature 44 °F 40 °F 31 °F (2016)
Degree Days  
Heating Degree Days 18    
Moisture  
Dew Point 42 °F    
Average Humidity 81    
Maximum Humidity 94    
Minimum Humidity 60    
Precipitation  
Precipitation 0.24 in - - ()
Sea Level Pressure  
Sea Level Pressure 29.70 in    
Wind  
Wind Speed 13 mph ()    
Max Wind Speed 26 mph    
Max Gust Speed 34 mph    
Visibility 5.4 miles    
Events Rain , Thunderstorm    
Averages and records for this station are not official NWS values.
T = Trace of Precipitation, MM = Missing Value Source: Averaged Metar Reports

Daily Weather History Graph

Daily Weather History Graph

Search for Another Location

Airport or City:

Trip Planner

Search our weather history database for the weather conditions in past years. The results will help you decide how hot, cold, wet, or windy it might be!

Date:

Astronomy

Dec. 06, 2012 Rise Set
Actual Time 7:15 AM EET 4:36 PM EET
Civil Twilight 6:44 AM EET 5:07 PM EET
Nautical Twilight 6:10 AM EET 5:41 PM EET
Astronomical Twilight 5:36 AM EET 6:14 PM EET
Moon No Moon Rise 11:55 AM EET (12/6)
Length of Visible Light 10h 22m
Length of Day
9h 21m
Waning Gibbous, 52% of the Moon is Illuminated
Dec 6
Waning Gibbous
Dec 6
Last Quarter
Dec 13
New
Dec 20
First Quarter
Dec 28
Full

Hourly Weather History & Observations

Time (EET) Temp. Windchill Dew Point Humidity Pressure Visibility Wind Dir Wind Speed Gust Speed Precip Events Conditions
12:20 AM 51.8 °F - 41.0 °F 67% 29.56 in 6.2 mi SSW 17.3 mph - N/A Rain Light Rain Showers
12:50 AM 50.0 °F - 42.8 °F 76% 29.56 in 6.2 mi South 11.5 mph - N/A Rain Light Rain Showers
1:20 AM 50.0 °F - 42.8 °F 76% 29.53 in 6.2 mi South 15.0 mph - N/A Rain Light Rain Showers
1:50 AM 51.8 °F - 44.6 °F 76% 29.53 in 1.9 mi South 26.5 mph - N/A Rain , Thunderstorm Light Thunderstorms and Rain
2:00 AM 51 °F - 45 °F 74% 29.54 in 2 mi South 26.5 mph - - Rain , Thunderstorm Thunderstorms and Rain
2:20 AM 51.8 °F - 46.4 °F 82% 29.53 in 6.2 mi South 26.5 mph - N/A   Mostly Cloudy
2:50 AM 50.0 °F - 46.4 °F 87% 29.53 in 6.2 mi South 25.3 mph - N/A   Mostly Cloudy
3:20 AM 51.8 °F - 46.4 °F 82% 29.53 in 6.2 mi South 25.3 mph - N/A Rain Light Rain Showers
3:50 AM 51.8 °F - 46.4 °F 82% 29.56 in 6.2 mi SSW 23.0 mph 34.5 mph N/A Rain Light Rain Showers
4:20 AM 51.8 °F - 48.2 °F 88% 29.56 in 6.2 mi SSW 23.0 mph - N/A Rain Light Rain Showers
4:50 AM 50.0 °F - 48.2 °F 94% 29.59 in 6.2 mi West 15.0 mph - N/A Rain Light Rain Showers
5:20 AM 50.0 °F - 46.4 °F 87% 29.62 in 6.2 mi West 10.4 mph - N/A   Mostly Cloudy
5:50 AM 48.2 °F - 44.6 °F 87% 29.62 in 6.2 mi NW 17.3 mph - N/A   Mostly Cloudy
6:20 AM 46.4 °F 40.1 °F 44.6 °F 93% 29.65 in 6.2 mi NNW 15.0 mph - N/A   Mostly Cloudy
6:50 AM 46.4 °F 40.4 °F 42.8 °F 87% 29.68 in 6.2 mi NNW 13.8 mph - N/A   Mostly Cloudy
7:20 AM 46.4 °F 40.4 °F 42.8 °F 87% 29.71 in 6.2 mi NNW 13.8 mph - N/A   Mostly Cloudy
7:50 AM 46.4 °F 41.1 °F 42.8 °F 87% 29.71 in 6.2 mi NNW 11.5 mph - N/A   Mostly Cloudy
8:00 AM 46 °F - 43 °F 86% 29.73 in 6 mi NNW 11.5 mph - -   Partly Cloudy
8:20 AM 46.4 °F 41.5 °F 41.0 °F 81% 29.71 in 6.2 mi North 10.4 mph - N/A   Mostly Cloudy
8:50 AM 46.4 °F 41.5 °F 41.0 °F 81% 29.74 in 6.2 mi North 10.4 mph - N/A   Mostly Cloudy
9:20 AM 48.2 °F - 39.2 °F 71% 29.74 in 6.2 mi North 11.5 mph - N/A   Mostly Cloudy
9:50 AM 48.2 °F - 39.2 °F 71% 29.77 in 6.2 mi North 5.8 mph - N/A   Mostly Cloudy
10:20 AM 48.2 °F - 39.2 °F 71% 29.77 in 6.2 mi North 4.6 mph - N/A   Mostly Cloudy
10:50 AM 48.2 °F - 39.2 °F 71% 29.77 in 6.2 mi NE 4.6 mph - N/A   Mostly Cloudy
11:20 AM 50.0 °F - 39.2 °F 66% 29.74 in 6.2 mi NE 6.9 mph - N/A   Mostly Cloudy
11:50 AM 50.0 °F - 41.0 °F 71% 29.74 in 6.2 mi ENE 4.6 mph - N/A   Mostly Cloudy
12:20 PM 50.0 °F - 41.0 °F 71% 29.74 in 6.2 mi East 4.6 mph - N/A   Mostly Cloudy
12:50 PM 50.0 °F - 41.0 °F 71% 29.71 in 6.2 mi NE 6.9 mph - N/A   Mostly Cloudy
1:20 PM 50.0 °F - 41.0 °F 71% 29.74 in 3.7 mi Variable 6.9 mph - N/A   Mostly Cloudy
1:50 PM 50.0 °F - 41.0 °F 71% 29.71 in 6.2 mi NNE 8.1 mph - N/A   Mostly Cloudy
2:00 PM 50 °F - 40 °F 60% 29.74 in 6 mi NNE 8.1 mph - -   Partly Cloudy
2:20 PM 50.0 °F - 39.2 °F 66% 29.71 in 3.7 mi ENE 11.5 mph - N/A   Mostly Cloudy
2:50 PM 48.2 °F - 39.2 °F 71% 29.71 in 3.7 mi NE 12.7 mph - N/A Rain Light Rain Showers
3:20 PM 48.2 °F - 41.0 °F 76% 29.74 in 3.7 mi North 10.4 mph - N/A Rain Light Rain Showers
3:50 PM 48.2 °F - 41.0 °F 76% 29.71 in 3.7 mi NNE 9.2 mph - N/A Rain Light Rain Showers
4:20 PM 46.4 °F 40.4 °F 41.0 °F 81% 29.74 in 3.7 mi NNE 13.8 mph - N/A Rain Light Rain Showers
4:50 PM 46.4 °F 41.1 °F 39.2 °F 76% 29.74 in 6.2 mi NNE 11.5 mph - N/A Rain Light Rain Showers
5:20 PM 44.6 °F 38.8 °F 41.0 °F 87% 29.74 in 6.2 mi North 11.5 mph - N/A Rain Light Rain Showers
5:50 PM 44.6 °F 39.2 °F 41.0 °F 87% 29.74 in 6.2 mi North 10.4 mph - N/A Rain Light Rain Showers
6:20 PM 44.6 °F 37.8 °F 41.0 °F 87% 29.74 in 6.2 mi NNE 15.0 mph - N/A Rain Light Rain Showers
6:50 PM 44.6 °F 38.1 °F 41.0 °F 87% 29.74 in 6.2 mi NNE 13.8 mph - N/A Rain Light Rain Showers
7:20 PM 44.6 °F 38.8 °F 41.0 °F 87% 29.77 in 5.0 mi NNE 11.5 mph - N/A Rain Light Rain Showers
7:50 PM 44.6 °F 39.2 °F 42.8 °F 93% 29.77 in 3.7 mi North 10.4 mph - N/A Rain Light Rain Showers
8:00 PM 44 °F - 42 °F 91% 29.79 in 4 mi North 10.4 mph - - Rain Light Rain Showers
8:20 PM 44.6 °F 39.7 °F 42.8 °F 93% 29.77 in 3.7 mi North 9.2 mph - N/A Rain Light Rain Showers
8:50 PM 44.6 °F 38.8 °F 41.0 °F 87% 29.77 in 3.7 mi North 11.5 mph - N/A Rain Light Rain Showers
9:20 PM 44.6 °F 39.2 °F 42.8 °F 93% 29.80 in 3.7 mi North 10.4 mph - N/A Rain Light Rain Showers
9:50 PM 44.6 °F 39.7 °F 41.0 °F 87% 29.80 in 6.2 mi North 9.2 mph - N/A   Mostly Cloudy
10:20 PM 44.6 °F 39.7 °F 41.0 °F 87% 29.80 in 6.2 mi North 9.2 mph - N/A   Mostly Cloudy
10:50 PM 44.6 °F 39.2 °F 42.8 °F 93% 29.80 in 6.2 mi North 10.4 mph - N/A   Mostly Cloudy
11:20 PM 44.6 °F 39.2 °F 42.8 °F 93% 29.83 in 6.2 mi North 10.4 mph - N/A   Mostly Cloudy
11:50 PM 44.6 °F 39.2 °F 42.8 °F 93% 29.83 in 3.7 mi NNW 10.4 mph - N/A Rain Light Rain Showers